TimeEST,TemperatureF,Dew PointF,Humidity,Sea Level PressureIn,VisibilityMPH,Wind Direction,Wind SpeedMPH,Gust SpeedMPH,PrecipitationIn,Events,Conditions,WindDirDegrees,DateUTC
12:54 AM,46.0,39.9,79,29.99,10.0,Calm,Calm,-,N/A,,Partly Cloudy,0,2012-11-04 04:54:00
1:54 AM,50.0,43.0,77,29.96,10.0,Calm,Calm,-,N/A,,Partly Cloudy,0,2012-11-04 05:54:00
1:54 AM,48.2,42.8,82,30.00,10.0,Calm,Calm,-,N/A,,Scattered Clouds,0,2012-11-04 06:54:00
2:54 AM,48.9,43.0,80,29.94,10.0,WNW,4.6,-,N/A,,Clear,290,2012-11-04 07:54:00
3:54 AM,46.9,42.1,83,29.94,10.0,SSE,3.5,-,N/A,,Clear,150,2012-11-04 08:54:00
4:54 AM,46.0,42.1,86,29.95,10.0,Calm,Calm,-,N/A,,Partly Cloudy,0,2012-11-04 09:54:00
5:54 AM,45.0,42.1,90,29.96,10.0,Calm,Calm,-,N/A,,Partly Cloudy,0,2012-11-04 10:54:00
6:54 AM,46.4,42.8,87,30.00,10.0,Calm,Calm,-,N/A,,Scattered Clouds,0,2012-11-04 11:54:00
7:54 AM,48.0,42.1,80,29.99,10.0,Calm,Calm,-,N/A,,Partly Cloudy,0,2012-11-04 12:54:00
8:54 AM,50.0,42.1,74,29.99,10.0,Calm,Calm,-,N/A,,Partly Cloudy,0,2012-11-04 13:54:00
9:54 AM,57.9,51.1,78,29.97,10.0,North,11.5,-,N/A,,Mostly Cloudy,350,2012-11-04 14:54:00
10:54 AM,61.0,50.0,67,29.96,10.0,NNW,13.8,-,N/A,,Clear,340,2012-11-04 15:54:00
11:54 AM,64.0,48.0,56,29.94,10.0,NNW,12.7,19.6,N/A,,Clear,340,2012-11-04 16:54:00
12:54 PM,62.1,46.0,56,29.93,10.0,NNW,15.0,-,N/A,,Clear,330,2012-11-04 17:54:00
1:54 PM,59.0,44.1,58,29.94,10.0,North,15.0,21.9,N/A,,Clear,350,2012-11-04 18:54:00
2:54 PM,57.0,43.0,59,29.94,10.0,NNW,12.7,-,N/A,,Scattered Clouds,340,2012-11-04 19:54:00
3:54 PM,55.9,42.1,60,29.94,10.0,North,12.7,-,N/A,,Mostly Cloudy,350,2012-11-04 20:54:00
4:54 PM,55.9,42.1,60,29.95,10.0,North,12.7,20.7,N/A,,Clear,350,2012-11-04 21:54:00
5:54 PM,53.1,42.1,66,29.97,10.0,North,12.7,19.6,N/A,,Clear,350,2012-11-04 22:54:00
6:54 PM,52.0,41.0,66,29.99,10.0,North,11.5,-,N/A,,Scattered Clouds,350,2012-11-04 23:54:00
7:54 PM,50.0,39.9,68,29.99,10.0,North,15.0,20.7,N/A,,Scattered Clouds,350,2012-11-05 00:54:00
8:54 PM,50.0,41.0,71,30.01,10.0,NNW,15.0,19.6,N/A,,Mostly Cloudy,340,2012-11-05 01:54:00
9:54 PM,48.9,39.0,69,29.99,10.0,North,11.5,20.7,N/A,,Overcast,350,2012-11-05 02:54:00
10:54 PM,46.0,37.9,73,29.99,10.0,NNW,12.7,-,N/A,,Clear,340,2012-11-05 03:54:00